This is the latest recevied weather packets stored in our database for station/object K1RFS. If no packets are shown the sender has not sent any weather packets the latest 10 day(s).
| Time | Temp. | Humidity | Pressure | Rain* | Wind** | Luminosity | Snow |
|---|---|---|---|---|---|---|---|
| 1777588082 | 16.67° C | 31% | 1002.1 hPa | 0 mm | - | 468 W/m² | - |
| 1777587778 | 16.67° C | 33% | 1002 hPa | 0 mm | - | 476 W/m² | - |
| 1777587477 | 17.22° C | 31% | 1002 hPa | 0 mm | - | 487 W/m² | - |
| 1777587174 | 17.22° C | 31% | 1002 hPa | 0 mm | - | 497 W/m² | - |
| 1777586869 | 17.22° C | 30% | 1002.2 hPa | 0 mm | - | 501 W/m² | - |
| 1777586565 | 17.22° C | 30% | 1002.2 hPa | 0 mm | - | 515 W/m² | - |
| 1777586261 | 17.22° C | 31% | 1002.4 hPa | 0 mm | - | 536 W/m² | - |
| 1777585958 | 16.67° C | 29% | 1002.3 hPa | 0 mm | - | 548 W/m² | - |
| 1777585654 | 16.67° C | 29% | 1002.4 hPa | 0 mm | - | 535 W/m² | - |
| 1777585349 | 16.67° C | 26% | 1002.3 hPa | 0 mm | - | 549 W/m² | - |
| 1777585044 | 16.67° C | 27% | 1002.4 hPa | 0 mm | - | 558 W/m² | - |
| 1777584740 | 17.22° C | 28% | 1002.5 hPa | 0 mm | - | 562 W/m² | - |
| 1777584439 | 16.67° C | 29% | 1002.5 hPa | 0 mm | - | 572 W/m² | - |
| 1777584135 | 16.67° C | 28% | 1002.5 hPa | 0 mm | - | 588 W/m² | - |
| 1777583834 | 17.22° C | 25% | 1002.6 hPa | 0 mm | - | 592 W/m² | - |
| 1777583530 | 17.78° C | 26% | 1002.6 hPa | 0 mm | - | 600 W/m² | - |
| 1777583223 | 16.67° C | 28% | 1002.6 hPa | 0 mm | - | 601 W/m² | - |
| 1777582918 | 16.67° C | 25% | 1002.6 hPa | 0 mm | - | 615 W/m² | - |
| 1777582616 | 16.67° C | 27% | 1002.8 hPa | 0 mm | - | 619 W/m² | - |
| 1777582311 | 17.22° C | 26% | 1002.9 hPa | 0 mm | - | 625 W/m² | - |
| 1777582009 | 16.11° C | 22% | 1002.8 hPa | 0 mm | - | 634 W/m² | - |
| 1777581704 | 16.67° C | 24% | 1003.1 hPa | 0 mm | - | 636 W/m² | - |
| 1777581404 | 16.67° C | 25% | 1003 hPa | 0 mm | - | 639 W/m² | - |
| 1777581104 | 17.22° C | 25% | 1003 hPa | 0 mm | - | 644 W/m² | - |
| 1777580803 | 16.67° C | 23% | 1003 hPa | 0 mm | - | 649 W/m² | - |
* Rain latest hour (hover to see other rain measurements)
** Current wind speed in m/s (hover to see current wind gust speed)